140  
ASUS41 KCTP 250510  
RWRCTP  
 
REGIONAL WEATHER ROUNDUP  
NATIONAL WEATHER SERVICE STATE COLLEGE PA  
100 AM EDT MON MAY 25 2020  
 
NOTE: "FAIR" INDICATES FEW OR NO CLOUDS BELOW 12,000 FEET WITH NO  
SIGNIFICANT WEATHER AND/OR S TO VISIBILITY
.  
 
* = STATION THAT DOES NOT REPORT PRECIPITATION /E.G. RAIN...SNOW...ETC/  
THUNDER OR FOG.
 
 
PAZ002>004-007>009-013>016-020>023-029>032-250600-  
WESTERN PENNSYLVANIA  
 
CITY SKY/WX TMP DP RH WIND PRES REMARKS
 
ERIE FAIR 73 62 68 S17G24 30.00R  
MEADVILLE FAIR 67 60 78 VRB5 30.06R  
FRANKLIN FAIR 63 59 87 SE10 30.10R  
NEW CASTLE FAIR 69 63 81 SE7 30.06S  
BEAVER COUNTY FAIR 68 62 79 SE7 30.06  
BUTLER FAIR 64 60 87 E8 30.08F  
PITTSBURGH INT FAIR 67 61 81 SE8 30.06F  
PITTSBURGH FAIR 64 61 90 SE6 30.07F  
INDIANA* CLEAR 63 61 94 SE8G16 30.14F  
LATROBE FAIR 63 63 100 CALM 30.10S  
WASHINGTON CO* FAIR 66 63 90 SE5 30.10S  

 
 
PAZ004>006-010>012-017>019-024>028-033>037-041-042-045-046-049>053-250600-  
CENTRAL PENNSYLVANIA  
 
CITY SKY/WX TMP DP RH WIND PRES REMARKS
 
BRADFORD CLOUDY 62 55 77 S9G18 30.13S  
ST MARYS CLOUDY 61 57 88 CALM 30.17  
DUBOIS CLOUDY 62 57 83 SE7G17 30.12F  
CLEARFIELD CLOUDY 63 57 81 S5 30.15F  
JOHNSTOWN CLOUDY 58 56 93 S10 30.15S FOG  
SOMERSET CLOUDY 55 55 100 S5 30.17S FOG  
ALTOONA CLOUDY 61 58 90 S7 30.17F  
STATE COLLEGE CLOUDY 62 57 84 S5 30.16F  
REEDSVILLE CLOUDY 64 61 88 CALM 30.16  
WELLSBORO CLOUDY 61 57 88 S12G20 30.15F  
WILLIAMSPORT CLOUDY 65 55 70 S17G33 30.13F  
SELINSGROVE CLOUDY 64 56 75 S12 30.18F  
FT INDIANTOWN CLOUDY 62 56 81 SE3 30.19F  
CAPITAL CITY CLOUDY 65 56 72 SE5 30.18F  
HARRISBURG CLOUDY 62 57 83 SE9 30.18F  
YORK CLOUDY 62 55 77 SE5 30.19F  

 
 
PAZ038>040-043-044-047-048-054-055-060>062-067>071-250600-  
EASTERN PENNSYLVANIA  
 
CITY SKY/WX TMP DP RH WIND PRES REMARKS
 
TOWANDA CLOUDY 64 55 72 CALM 30.16F VSB 1/4  
SCRANTON FAIR 59 51 75 VRB3 30.20F  
MOUNT POCONO CLOUDY 52 50 93 SE7 30.22F  
HAZLETON CLOUDY 55 52 88 SE5 30.24F  
LEHIGHTON FAIR 52 52 100 CALM 30.23F  
ALLENTOWN FAIR 57 51 80 E10 30.23F  
QN CITY/ALNTWN FAIR 55 54 94 E8 30.24F  
QUAKERTOWN* MOCLDY 54 54 100 CALM 30.24F  
PERKASIE* CLOUDY 54 54 100 CALM 30.25F  
DOYLESTOWN CLOUDY 57 53 86 CALM 30.22F  
READING FAIR 59 54 83 SE5 30.19F  
LANCASTER CLOUDY 61 53 75 SE9 30.19F  
COATESVILLE FAIR 55 52 88 E5 30.23F  
WEST CHESTER CLOUDY 55 52 88 E3 30.22F  
POTTSTOWN FAIR 53 51 93 VRB5 30.24F  
BLUE BELL CLOUDY 56 54 94 CALM 30.23F  
NORTH PHILA CLOUDY 59 56 89 N6 30.24F FOG  
PHILADELPHIA CLOUDY 58 53 84 NE5 30.22F  

 
 
 
CLICK HERE TO GO TO PREVIOUS BULLETINS.

The Nexlab PA Page Main Text Page